Year,Month,Day,Hour,Minute,Value (Times are PST for temperature in C)
2008,03,29,00,00,0.60
2008,03,29,00,01,0.60
2008,03,29,00,02,0.60
2008,03,29,00,03,0.60
2008,03,29,00,04,0.60
2008,03,29,00,05,0.60
2008,03,29,00,06,0.60
2008,03,29,00,07,0.60
2008,03,29,00,08,0.60
2008,03,29,00,09,0.60
2008,03,29,00,10,0.60
2008,03,29,00,11,0.60
2008,03,29,00,12,0.60
2008,03,29,00,13,0.60
2008,03,29,00,14,0.60
2008,03,29,00,15,0.70
2008,03,29,00,16,0.70
2008,03,29,00,17,0.70
2008,03,29,00,18,0.70
2008,03,29,00,19,0.70
2008,03,29,00,20,0.70
2008,03,29,00,21,0.60
2008,03,29,00,22,0.60
2008,03,29,00,23,0.60
2008,03,29,00,24,0.60
2008,03,29,00,25,0.60
2008,03,29,00,26,0.60
2008,03,29,00,27,0.60
2008,03,29,00,28,0.60
2008,03,29,00,29,0.60
2008,03,29,00,30,0.70
2008,03,29,00,31,0.70
2008,03,29,00,32,0.70
2008,03,29,00,33,0.70
2008,03,29,00,34,0.70
2008,03,29,00,35,0.70
2008,03,29,00,36,0.70
2008,03,29,00,37,0.70
2008,03,29,00,38,0.70
2008,03,29,00,39,0.70
2008,03,29,00,40,0.70
2008,03,29,00,41,0.70
2008,03,29,00,42,0.70
2008,03,29,00,43,0.70
2008,03,29,00,44,0.70
2008,03,29,00,45,0.70
2008,03,29,00,46,0.70
2008,03,29,00,47,0.70
2008,03,29,00,48,0.70
2008,03,29,00,49,0.70
2008,03,29,00,50,0.70
2008,03,29,00,51,0.70
2008,03,29,00,52,0.70
2008,03,29,00,53,0.70
2008,03,29,00,54,0.80
2008,03,29,00,55,0.70
2008,03,29,00,56,0.70
2008,03,29,00,57,0.70
2008,03,29,00,58,0.70
2008,03,29,00,59,0.80
2008,03,29,01,00,0.80
2008,03,29,01,01,0.80
2008,03,29,01,02,0.70
2008,03,29,01,03,0.70
2008,03,29,01,04,0.70
2008,03,29,01,05,0.70
2008,03,29,01,06,0.70
2008,03,29,01,07,0.70
2008,03,29,01,08,0.70
2008,03,29,01,09,0.70
2008,03,29,01,10,0.70
2008,03,29,01,11,0.70
2008,03,29,01,12,0.70
2008,03,29,01,13,0.70
2008,03,29,01,14,0.70
2008,03,29,01,15,0.70
2008,03,29,01,16,0.70
2008,03,29,01,17,0.70
2008,03,29,01,18,0.70
2008,03,29,01,19,0.80
2008,03,29,01,20,0.80
2008,03,29,01,21,0.80
2008,03,29,01,22,0.80
2008,03,29,01,23,0.70
2008,03,29,01,24,0.70
2008,03,29,01,25,0.70
2008,03,29,01,26,0.70
2008,03,29,01,27,0.70
2008,03,29,01,28,0.70
2008,03,29,01,29,0.70
2008,03,29,01,30,0.70
2008,03,29,01,31,0.80
2008,03,29,01,32,0.80
2008,03,29,01,33,0.70
2008,03,29,01,34,0.70
2008,03,29,01,35,0.70
2008,03,29,01,36,0.70
2008,03,29,01,37,0.70
2008,03,29,01,38,0.70
2008,03,29,01,39,0.80
2008,03,29,01,40,0.80
2008,03,29,01,41,0.80
2008,03,29,01,42,0.80
2008,03,29,01,43,0.80
2008,03,29,01,44,0.80
2008,03,29,01,45,0.80
2008,03,29,01,46,0.90
2008,03,29,01,47,0.90
2008,03,29,01,48,0.90
2008,03,29,01,49,0.90
2008,03,29,01,50,0.90
2008,03,29,01,51,0.80
2008,03,29,01,52,0.80
2008,03,29,01,53,0.80
2008,03,29,01,54,0.80
2008,03,29,01,55,0.80
2008,03,29,01,56,0.80
2008,03,29,01,57,0.80
2008,03,29,01,58,0.80
2008,03,29,01,59,0.80
2008,03,29,02,00,0.80
2008,03,29,02,01,0.80
2008,03,29,02,02,0.80
2008,03,29,02,03,0.80
2008,03,29,02,04,0.80
2008,03,29,02,05,0.80
2008,03,29,02,06,0.80
2008,03,29,02,07,0.80
2008,03,29,02,08,0.90
2008,03,29,02,09,0.80
2008,03,29,02,10,0.80
2008,03,29,02,11,0.80
2008,03,29,02,12,0.80
2008,03,29,02,13,0.80
2008,03,29,02,14,0.80
2008,03,29,02,15,0.80
2008,03,29,02,16,0.80
2008,03,29,02,17,0.80
2008,03,29,02,18,0.80
2008,03,29,02,19,0.80
2008,03,29,02,20,0.80
2008,03,29,02,21,0.80
2008,03,29,02,22,0.80
2008,03,29,02,23,0.80
2008,03,29,02,24,0.80
2008,03,29,02,25,0.80
2008,03,29,02,26,0.80
2008,03,29,02,27,0.80
2008,03,29,02,28,0.80
2008,03,29,02,29,0.80
2008,03,29,02,30,0.80
2008,03,29,02,31,0.80
2008,03,29,02,32,0.80
2008,03,29,02,33,0.80
2008,03,29,02,34,0.80
2008,03,29,02,35,0.80
2008,03,29,02,36,0.80
2008,03,29,02,37,0.80
2008,03,29,02,38,0.80
2008,03,29,02,39,0.80
2008,03,29,02,40,0.80
2008,03,29,02,41,0.80
2008,03,29,02,42,0.80
2008,03,29,02,43,0.80
2008,03,29,02,44,0.80
2008,03,29,02,45,0.80
2008,03,29,02,46,0.80
2008,03,29,02,47,0.80
2008,03,29,02,48,0.80
2008,03,29,02,49,0.80
2008,03,29,02,50,0.80
2008,03,29,02,51,0.70
2008,03,29,02,52,0.70
2008,03,29,02,53,0.70
2008,03,29,02,54,0.70
2008,03,29,02,55,0.70
2008,03,29,02,56,0.70
2008,03,29,02,57,0.70
2008,03,29,02,58,0.70
2008,03,29,02,59,0.70
2008,03,29,03,00,0.70
2008,03,29,03,01,0.70
2008,03,29,03,02,0.70
2008,03,29,03,03,0.70
2008,03,29,03,04,0.70
2008,03,29,03,05,0.70
2008,03,29,03,06,0.70
2008,03,29,03,07,0.70
2008,03,29,03,08,0.70
2008,03,29,03,09,0.70
2008,03,29,03,10,0.70
2008,03,29,03,11,0.60
2008,03,29,03,12,0.60
2008,03,29,03,13,0.60
2008,03,29,03,14,0.60
2008,03,29,03,15,0.60
2008,03,29,03,16,0.60
2008,03,29,03,17,0.60
2008,03,29,03,18,0.60
2008,03,29,03,19,0.60
2008,03,29,03,20,0.60
2008,03,29,03,21,0.60
2008,03,29,03,22,0.60
2008,03,29,03,23,0.60
2008,03,29,03,24,0.60
2008,03,29,03,25,0.60
2008,03,29,03,26,0.50
2008,03,29,03,27,0.50
2008,03,29,03,28,0.50
2008,03,29,03,29,0.50
2008,03,29,03,30,0.40
2008,03,29,03,31,0.40
2008,03,29,03,32,0.40
2008,03,29,03,33,0.40
2008,03,29,03,34,0.40
2008,03,29,03,35,0.40
2008,03,29,03,36,0.40
2008,03,29,03,37,0.40
2008,03,29,03,38,0.40
2008,03,29,03,39,0.40
2008,03,29,03,40,0.40
2008,03,29,03,41,0.40
2008,03,29,03,42,0.40
2008,03,29,03,43,0.40
2008,03,29,03,44,0.40
2008,03,29,03,45,0.40
2008,03,29,03,46,0.40
2008,03,29,03,47,0.30
2008,03,29,03,48,0.30
2008,03,29,03,49,0.30
2008,03,29,03,50,0.30
2008,03,29,03,51,0.30
2008,03,29,03,52,0.30
2008,03,29,03,53,0.30
2008,03,29,03,54,0.30
2008,03,29,03,55,0.20
2008,03,29,03,56,0.20
2008,03,29,03,57,0.20
2008,03,29,03,58,0.20
2008,03,29,03,59,0.20
2008,03,29,04,00,0.20
2008,03,29,04,01,0.20
2008,03,29,04,02,0.20
2008,03,29,04,03,0.20
2008,03,29,04,04,0.20
2008,03,29,04,05,0.20
2008,03,29,04,06,0.20
2008,03,29,04,07,0.20
2008,03,29,04,08,0.20
2008,03,29,04,09,0.10
2008,03,29,04,10,0.10
2008,03,29,04,11,0.10
2008,03,29,04,12,0.10
2008,03,29,04,13,0.10
2008,03,29,04,14,0.10
2008,03,29,04,15,0.10
2008,03,29,04,16,0.10
2008,03,29,04,17,0.10
2008,03,29,04,18,0.10
2008,03,29,04,19,0.10
2008,03,29,04,20,0.10
2008,03,29,04,21,0.10
2008,03,29,04,22,0.10
2008,03,29,04,23,0.10
2008,03,29,04,24,0.10
2008,03,29,04,25,0.10
2008,03,29,04,26,0.10
2008,03,29,04,27,0.10
2008,03,29,04,28,0.10
2008,03,29,04,29,0.10
2008,03,29,04,30,0.10
2008,03,29,04,31,0.20
2008,03,29,04,32,0.20
2008,03,29,04,33,0.20
2008,03,29,04,34,0.20
2008,03,29,04,35,0.20
2008,03,29,04,36,0.20
2008,03,29,04,37,0.20
2008,03,29,04,38,0.20
2008,03,29,04,39,0.20
2008,03,29,04,40,0.20
2008,03,29,04,41,0.20
2008,03,29,04,42,0.30
2008,03,29,04,43,0.30
2008,03,29,04,44,0.30
2008,03,29,04,45,0.30
2008,03,29,04,46,0.30
2008,03,29,04,47,0.30
2008,03,29,04,48,0.30
2008,03,29,04,49,0.30
2008,03,29,04,50,0.30
2008,03,29,04,51,0.30
2008,03,29,04,52,0.30
2008,03,29,04,53,0.30
2008,03,29,04,54,0.30
2008,03,29,04,55,0.30
2008,03,29,04,56,0.30
2008,03,29,04,57,0.30
2008,03,29,04,58,0.40
2008,03,29,04,59,0.40
2008,03,29,05,00,0.40
2008,03,29,05,01,0.40
2008,03,29,05,02,0.40
2008,03,29,05,03,0.40
2008,03,29,05,04,0.40
2008,03,29,05,05,0.40
2008,03,29,05,06,0.40
2008,03,29,05,07,0.40
2008,03,29,05,08,0.40
2008,03,29,05,09,0.40
2008,03,29,05,10,0.40
2008,03,29,05,11,0.40
2008,03,29,05,12,0.40
2008,03,29,05,13,0.40
2008,03,29,05,14,0.40
2008,03,29,05,15,0.40
2008,03,29,05,16,0.40
2008,03,29,05,17,0.40
2008,03,29,05,18,0.40
2008,03,29,05,19,0.40
2008,03,29,05,20,0.40
2008,03,29,05,21,0.40
2008,03,29,05,22,0.40
2008,03,29,05,23,0.40
2008,03,29,05,24,0.40
2008,03,29,05,25,0.40
2008,03,29,05,26,0.40
2008,03,29,05,27,0.40
2008,03,29,05,28,0.40
2008,03,29,05,29,0.40
2008,03,29,05,30,0.40
2008,03,29,05,31,0.40
2008,03,29,05,32,0.50
2008,03,29,05,33,0.50
2008,03,29,05,34,0.50
2008,03,29,05,35,0.50
2008,03,29,05,36,0.50
2008,03,29,05,37,0.50
2008,03,29,05,38,0.50
2008,03,29,05,39,0.50
2008,03,29,05,40,0.50
2008,03,29,05,41,0.50
2008,03,29,05,42,0.50
2008,03,29,05,43,0.50
2008,03,29,05,44,0.50
2008,03,29,05,45,0.50
2008,03,29,05,46,0.50
2008,03,29,05,47,0.50
2008,03,29,05,48,0.50
2008,03,29,05,49,0.50
2008,03,29,05,50,0.50
2008,03,29,05,51,0.50
2008,03,29,05,52,0.50
2008,03,29,05,53,0.50
2008,03,29,05,54,0.50
2008,03,29,05,55,0.50
2008,03,29,05,56,0.50
2008,03,29,05,57,0.50
2008,03,29,05,58,0.50
2008,03,29,05,59,0.50
2008,03,29,06,00,0.50
2008,03,29,06,01,0.50
2008,03,29,06,02,0.50
2008,03,29,06,03,0.60
2008,03,29,06,04,0.60
2008,03,29,06,05,0.60
2008,03,29,06,06,0.60
2008,03,29,06,07,0.60
2008,03,29,06,08,0.60
2008,03,29,06,09,0.60
2008,03,29,06,10,0.60
2008,03,29,06,11,0.60
2008,03,29,06,12,0.60
2008,03,29,06,13,0.60
2008,03,29,06,14,0.60
2008,03,29,06,15,0.60
2008,03,29,06,16,0.60
2008,03,29,06,17,0.60
2008,03,29,06,18,0.60
2008,03,29,06,19,0.60
2008,03,29,06,20,0.60
2008,03,29,06,21,0.60
2008,03,29,06,22,0.60
2008,03,29,06,23,0.50
2008,03,29,06,24,0.50
2008,03,29,06,25,0.50
2008,03,29,06,26,0.50
2008,03,29,06,27,0.50
2008,03,29,06,28,0.50
2008,03,29,06,29,0.50
2008,03,29,06,30,0.40
2008,03,29,06,31,0.40
2008,03,29,06,32,0.40
2008,03,29,06,33,0.50
2008,03,29,06,34,0.40
2008,03,29,06,35,0.40
2008,03,29,06,36,0.50
2008,03,29,06,37,0.40
2008,03,29,06,38,0.50
2008,03,29,06,39,0.50
2008,03,29,06,40,0.50
2008,03,29,06,41,0.50
2008,03,29,06,42,0.50
2008,03,29,06,43,0.50
2008,03,29,06,44,0.50
2008,03,29,06,45,0.60
2008,03,29,06,46,0.60
2008,03,29,06,47,0.50
2008,03,29,06,48,0.50
2008,03,29,06,49,0.50
2008,03,29,06,50,0.50
2008,03,29,06,51,0.50
2008,03,29,06,52,0.50
2008,03,29,06,53,0.50
2008,03,29,06,54,0.50
2008,03,29,06,55,0.40
2008,03,29,06,56,0.40
2008,03,29,06,57,0.40
2008,03,29,06,58,0.40
2008,03,29,06,59,0.40
2008,03,29,07,00,0.40
2008,03,29,07,01,0.40
2008,03,29,07,02,0.40
2008,03,29,07,03,0.40
2008,03,29,07,04,0.40
2008,03,29,07,05,0.40
2008,03,29,07,06,0.40
2008,03,29,07,07,0.30
2008,03,29,07,08,0.30
2008,03,29,07,09,0.30
2008,03,29,07,10,0.30
2008,03,29,07,11,0.30
2008,03,29,07,12,0.20
2008,03,29,07,13,0.20
2008,03,29,07,14,0.20
2008,03,29,07,15,0.20
2008,03,29,07,16,0.20
2008,03,29,07,17,0.20
2008,03,29,07,18,0.20
2008,03,29,07,19,0.30
2008,03,29,07,20,0.20
2008,03,29,07,21,0.20
2008,03,29,07,22,0.20
2008,03,29,07,23,0.30
2008,03,29,07,24,0.20
2008,03,29,07,25,0.20
2008,03,29,07,26,0.20
2008,03,29,07,27,0.20
2008,03,29,07,28,0.20
2008,03,29,07,29,0.20
2008,03,29,07,30,0.20
2008,03,29,07,31,0.20
2008,03,29,07,32,0.20
2008,03,29,07,33,0.20
2008,03,29,07,34,0.20
2008,03,29,07,35,0.20
2008,03,29,07,36,0.20
2008,03,29,07,37,0.20
2008,03,29,07,38,0.20
2008,03,29,07,39,0.20
2008,03,29,07,40,0.20
2008,03,29,07,41,0.10
2008,03,29,07,42,0.10
2008,03,29,07,43,0.10
2008,03,29,07,44,0.10
2008,03,29,07,45,0.20
2008,03,29,07,46,0.20
2008,03,29,07,47,0.20
2008,03,29,07,48,0.20
2008,03,29,07,49,0.20
2008,03,29,07,50,0.20
2008,03,29,07,51,0.20
2008,03,29,07,52,0.20
2008,03,29,07,53,0.20
2008,03,29,07,54,0.20
2008,03,29,07,55,0.20
2008,03,29,07,56,0.20
2008,03,29,07,57,0.20
2008,03,29,07,58,0.20
2008,03,29,07,59,0.20
2008,03,29,08,00,0.20
2008,03,29,08,01,0.20
2008,03,29,08,02,0.20
2008,03,29,08,03,0.20
2008,03,29,08,04,0.20
2008,03,29,08,05,0.20
2008,03,29,08,06,0.20
2008,03,29,08,07,0.20
2008,03,29,08,08,0.20
2008,03,29,08,09,0.30
2008,03,29,08,10,0.30
2008,03,29,08,11,0.30
2008,03,29,08,12,0.30
2008,03,29,08,13,0.30
2008,03,29,08,14,0.30
2008,03,29,08,15,0.40
2008,03,29,08,16,0.40
2008,03,29,08,17,0.40
2008,03,29,08,18,0.40
2008,03,29,08,19,0.50
2008,03,29,08,20,0.50
2008,03,29,08,21,0.50
2008,03,29,08,22,0.60
2008,03,29,08,23,0.60
2008,03,29,08,24,0.60
2008,03,29,08,25,0.60
2008,03,29,08,26,0.70
2008,03,29,08,27,0.70
2008,03,29,08,28,0.70
2008,03,29,08,29,0.70
2008,03,29,08,30,0.80
2008,03,29,08,31,0.80
2008,03,29,08,32,0.80
2008,03,29,08,33,0.80
2008,03,29,08,34,0.90
2008,03,29,08,35,0.90
2008,03,29,08,36,0.90
2008,03,29,08,37,1.00
2008,03,29,08,38,1.00
2008,03,29,08,39,1.10
2008,03,29,08,40,1.10
2008,03,29,08,41,1.20
2008,03,29,08,42,1.20
2008,03,29,08,43,1.20
2008,03,29,08,44,1.30
2008,03,29,08,45,1.30
2008,03,29,08,46,1.30
2008,03,29,08,47,1.30
2008,03,29,08,48,1.30
2008,03,29,08,49,1.30
2008,03,29,08,50,1.30
2008,03,29,08,51,1.40
2008,03,29,08,52,1.50
2008,03,29,08,53,1.50
2008,03,29,08,54,1.60
2008,03,29,08,55,1.60
2008,03,29,08,56,1.60
2008,03,29,08,57,1.70
2008,03,29,08,58,1.70
2008,03,29,08,59,1.70
2008,03,29,09,00,1.80
2008,03,29,09,01,1.80
2008,03,29,09,02,1.80
2008,03,29,09,03,1.90
2008,03,29,09,04,1.90
2008,03,29,09,05,1.90
2008,03,29,09,06,2.00
2008,03,29,09,07,2.00
2008,03,29,09,08,2.00
2008,03,29,09,09,2.10
2008,03,29,09,10,2.10
2008,03,29,09,11,2.10
2008,03,29,09,12,2.20
2008,03,29,09,13,2.20
2008,03,29,09,14,2.20
2008,03,29,09,15,2.30
2008,03,29,09,16,2.30
2008,03,29,09,17,2.40
2008,03,29,09,18,2.40
2008,03,29,09,19,2.50
2008,03,29,09,20,2.50
2008,03,29,09,21,2.60
2008,03,29,09,22,2.60
2008,03,29,09,23,2.60
2008,03,29,09,24,2.60
2008,03,29,09,25,2.60
2008,03,29,09,26,2.70
2008,03,29,09,27,2.70
2008,03,29,09,28,2.70
2008,03,29,09,29,2.70
2008,03,29,09,30,2.70
2008,03,29,09,31,2.80
2008,03,29,09,32,2.80
2008,03,29,09,33,2.90
2008,03,29,09,34,2.90
2008,03,29,09,35,2.90
2008,03,29,09,36,3.00
2008,03,29,09,37,3.10
2008,03,29,09,38,3.10
2008,03,29,09,39,3.10
2008,03,29,09,40,3.10
2008,03,29,09,41,3.20
2008,03,29,09,42,3.20
2008,03,29,09,43,3.20
2008,03,29,09,44,3.20
2008,03,29,09,45,3.30
2008,03,29,09,46,3.30
2008,03,29,09,47,3.30
2008,03,29,09,48,3.30
2008,03,29,09,49,3.30
2008,03,29,09,50,3.30
2008,03,29,09,51,3.40
2008,03,29,09,52,3.40
2008,03,29,09,53,3.40
2008,03,29,09,54,3.40
2008,03,29,09,55,3.40
2008,03,29,09,56,3.40
2008,03,29,09,57,3.40
2008,03,29,09,58,3.40
2008,03,29,09,59,3.50
2008,03,29,10,00,3.50
2008,03,29,10,01,3.50
2008,03,29,10,02,3.50
2008,03,29,10,03,3.50
2008,03,29,10,04,3.60
2008,03,29,10,05,3.60
2008,03,29,10,06,3.60
2008,03,29,10,07,3.60
2008,03,29,10,08,3.60
2008,03,29,10,09,3.60
2008,03,29,10,10,3.60
2008,03,29,10,11,3.60
2008,03,29,10,12,3.60
2008,03,29,10,13,3.70
2008,03,29,10,14,3.70
2008,03,29,10,15,3.70
2008,03,29,10,16,3.70
2008,03,29,10,17,3.70
2008,03,29,10,18,3.70
2008,03,29,10,19,3.70
2008,03,29,10,20,3.80
2008,03,29,10,21,3.80
2008,03,29,10,22,3.80
2008,03,29,10,23,3.90
2008,03,29,10,24,3.90
2008,03,29,10,25,3.90
2008,03,29,10,26,4.00
2008,03,29,10,27,4.00
2008,03,29,10,28,4.10
2008,03,29,10,29,4.10
2008,03,29,10,30,4.10
2008,03,29,10,31,4.20
2008,03,29,10,32,4.20
2008,03,29,10,33,4.30
2008,03,29,10,34,4.30
2008,03,29,10,35,4.40
2008,03,29,10,36,4.40
2008,03,29,10,37,4.50
2008,03,29,10,38,4.60
2008,03,29,10,39,4.60
2008,03,29,10,40,4.60
2008,03,29,10,41,4.70
2008,03,29,10,42,4.70
2008,03,29,10,43,4.80
2008,03,29,10,44,4.80
2008,03,29,10,45,4.90
2008,03,29,10,46,5.00
2008,03,29,10,47,5.00
2008,03,29,10,48,5.10
2008,03,29,10,49,5.10
2008,03,29,10,50,5.20
2008,03,29,10,51,5.20
2008,03,29,10,52,5.30
2008,03,29,10,53,5.30
2008,03,29,10,54,5.30
2008,03,29,10,55,5.30
2008,03,29,10,56,5.30
2008,03,29,10,57,5.30
2008,03,29,10,58,5.30
2008,03,29,10,59,5.30
2008,03,29,11,00,5.30
2008,03,29,11,01,5.30
2008,03,29,11,02,5.30
2008,03,29,11,03,5.30
2008,03,29,11,04,5.30
2008,03,29,11,05,5.40
2008,03,29,11,06,5.40
2008,03,29,11,07,5.50
2008,03,29,11,08,5.50
2008,03,29,11,09,5.60
2008,03,29,11,10,5.70
2008,03,29,11,11,5.70
2008,03,29,11,12,5.70
2008,03,29,11,13,5.80
2008,03,29,11,14,5.80
2008,03,29,11,15,5.80
2008,03,29,11,16,5.90
2008,03,29,11,17,6.00
2008,03,29,11,18,6.10
2008,03,29,11,19,6.10
2008,03,29,11,20,6.20
2008,03,29,11,21,6.20
2008,03,29,11,22,6.10
2008,03,29,11,23,6.10
2008,03,29,11,24,6.10
2008,03,29,11,25,6.10
2008,03,29,11,26,6.10
2008,03,29,11,27,6.10
2008,03,29,11,28,6.10
2008,03,29,11,29,6.10
2008,03,29,11,30,6.10
2008,03,29,11,31,6.20
2008,03,29,11,32,6.20
2008,03,29,11,33,6.20
2008,03,29,11,34,6.20
2008,03,29,11,35,6.30
2008,03,29,11,36,6.30
2008,03,29,11,37,6.40
2008,03,29,11,38,6.50
2008,03,29,11,39,6.60
2008,03,29,11,40,6.70
2008,03,29,11,41,6.70
2008,03,29,11,42,6.70
2008,03,29,11,43,6.70
2008,03,29,11,44,6.70
2008,03,29,11,45,6.60
2008,03,29,11,46,6.60
2008,03,29,11,47,6.60
2008,03,29,11,48,6.60
2008,03,29,11,49,6.60
2008,03,29,11,50,6.60
2008,03,29,11,51,6.60
2008,03,29,11,52,6.60
2008,03,29,11,53,6.60
2008,03,29,11,54,6.60
2008,03,29,11,55,6.60
2008,03,29,11,56,6.60
2008,03,29,11,57,6.60
2008,03,29,11,58,6.60
2008,03,29,11,59,6.60
2008,03,29,12,00,6.60
2008,03,29,12,01,6.60
2008,03,29,12,02,6.60
2008,03,29,12,03,6.50
2008,03,29,12,04,6.50
2008,03,29,12,05,6.50
2008,03,29,12,06,6.60
2008,03,29,12,07,6.60
2008,03,29,12,08,6.60
2008,03,29,12,09,6.60
2008,03,29,12,10,6.60
2008,03,29,12,11,6.60
2008,03,29,12,12,6.50
2008,03,29,12,13,6.50
2008,03,29,12,14,6.40
2008,03,29,12,15,6.40
2008,03,29,12,16,6.40
2008,03,29,12,17,6.40
2008,03,29,12,18,6.30
2008,03,29,12,19,6.40
2008,03,29,12,20,6.40
2008,03,29,12,21,6.40
2008,03,29,12,22,6.40
2008,03,29,12,23,6.50
2008,03,29,12,24,6.50
2008,03,29,12,25,6.50
2008,03,29,12,26,6.60
2008,03,29,12,27,6.70
2008,03,29,12,28,6.70
2008,03,29,12,29,6.80
2008,03,29,12,30,6.80
2008,03,29,12,31,6.80
2008,03,29,12,32,6.80
2008,03,29,12,33,6.90
2008,03,29,12,34,6.90
2008,03,29,12,35,6.80
2008,03,29,12,36,6.80
2008,03,29,12,37,6.80
2008,03,29,12,38,6.80
2008,03,29,12,39,6.80
2008,03,29,12,40,6.80
2008,03,29,12,41,6.70
2008,03,29,12,42,6.70
2008,03,29,12,43,6.70
2008,03,29,12,44,6.70
2008,03,29,12,45,6.60
2008,03,29,12,46,6.50
2008,03,29,12,47,6.40
2008,03,29,12,48,6.40
2008,03,29,12,49,6.30
2008,03,29,12,50,6.30
2008,03,29,12,51,6.30
2008,03,29,12,52,6.30
2008,03,29,12,53,6.30
2008,03,29,12,54,6.30
2008,03,29,12,55,6.30
2008,03,29,12,56,6.30
2008,03,29,12,57,6.30
2008,03,29,12,58,6.30
2008,03,29,12,59,6.30
2008,03,29,13,00,6.30
2008,03,29,13,01,6.30
2008,03,29,13,02,6.20
2008,03,29,13,03,6.30
2008,03,29,13,04,6.30
2008,03,29,13,05,6.30
2008,03,29,13,06,6.30
2008,03,29,13,07,6.40
2008,03,29,13,08,6.50
2008,03,29,13,09,6.50
2008,03,29,13,10,6.50
2008,03,29,13,11,6.50
2008,03,29,13,12,6.50
2008,03,29,13,13,6.60
2008,03,29,13,14,6.60
2008,03,29,13,15,6.60
2008,03,29,13,16,6.60
2008,03,29,13,17,6.60
2008,03,29,13,18,6.60
2008,03,29,13,19,6.70
2008,03,29,13,20,6.70
2008,03,29,13,21,6.70
2008,03,29,13,22,6.60
2008,03,29,13,23,6.50
2008,03,29,13,24,6.40
2008,03,29,13,25,6.40
2008,03,29,13,26,6.40
2008,03,29,13,27,6.30
2008,03,29,13,28,6.40
2008,03,29,13,29,6.40
2008,03,29,13,30,6.40
2008,03,29,13,31,6.30
2008,03,29,13,32,6.30
2008,03,29,13,33,6.30
2008,03,29,13,34,6.30
2008,03,29,13,35,6.30
2008,03,29,13,36,6.20
2008,03,29,13,37,6.20
2008,03,29,13,38,6.20
2008,03,29,13,39,6.20
2008,03,29,13,40,6.30
2008,03,29,13,41,6.30
2008,03,29,13,42,6.30
2008,03,29,13,43,6.30
2008,03,29,13,44,6.30
2008,03,29,13,45,6.30
2008,03,29,13,46,6.30
2008,03,29,13,47,6.40
2008,03,29,13,48,6.40
2008,03,29,13,49,6.40
2008,03,29,13,50,6.50
2008,03,29,13,51,6.50
2008,03,29,13,52,6.60
2008,03,29,13,53,6.50
2008,03,29,13,54,6.50
2008,03,29,13,55,6.50
2008,03,29,13,56,6.50
2008,03,29,13,57,6.50
2008,03,29,13,58,6.50
2008,03,29,13,59,6.50
2008,03,29,14,00,6.50
2008,03,29,14,01,6.50
2008,03,29,14,02,6.40
2008,03,29,14,03,6.40
2008,03,29,14,04,6.40
2008,03,29,14,05,6.40
2008,03,29,14,06,6.40
2008,03,29,14,07,6.40
2008,03,29,14,08,6.30
2008,03,29,14,09,6.30
2008,03,29,14,10,6.30
2008,03,29,14,11,6.20
2008,03,29,14,12,6.20
2008,03,29,14,13,6.20
2008,03,29,14,14,6.20
2008,03,29,14,15,6.20
2008,03,29,14,16,6.20
2008,03,29,14,17,6.20
2008,03,29,14,18,6.20
2008,03,29,14,19,6.20
2008,03,29,14,20,6.30
2008,03,29,14,21,6.30
2008,03,29,14,22,6.30
2008,03,29,14,23,6.30
2008,03,29,14,24,6.30
2008,03,29,14,25,6.30
2008,03,29,14,26,6.30
2008,03,29,14,27,6.30
2008,03,29,14,28,6.30
2008,03,29,14,29,6.30
2008,03,29,14,30,6.30
2008,03,29,14,31,6.20
2008,03,29,14,32,6.20
2008,03,29,14,33,6.10
2008,03,29,14,34,6.10
2008,03,29,14,35,6.10
2008,03,29,14,36,6.00
2008,03,29,14,37,6.00
2008,03,29,14,38,6.00
2008,03,29,14,39,6.00
2008,03,29,14,40,5.90
2008,03,29,14,41,5.90
2008,03,29,14,42,5.90
2008,03,29,14,43,5.90
2008,03,29,14,44,5.80
2008,03,29,14,45,5.70
2008,03,29,14,46,5.70
2008,03,29,14,47,5.60
2008,03,29,14,48,5.60
2008,03,29,14,49,5.30
2008,03,29,14,50,5.20
2008,03,29,14,51,5.10
2008,03,29,14,52,4.90
2008,03,29,14,53,4.80
2008,03,29,14,54,4.60
2008,03,29,14,55,4.50
2008,03,29,14,56,4.40
2008,03,29,14,57,4.20
2008,03,29,14,58,4.10
2008,03,29,14,59,3.90
2008,03,29,15,00,3.80
2008,03,29,15,01,3.70
2008,03,29,15,02,3.60
2008,03,29,15,03,3.50
2008,03,29,15,04,3.40
2008,03,29,15,05,3.30
2008,03,29,15,06,3.10
2008,03,29,15,07,3.00
2008,03,29,15,08,2.90
2008,03,29,15,09,2.80
2008,03,29,15,10,2.80
2008,03,29,15,11,2.80
2008,03,29,15,12,2.80
2008,03,29,15,13,2.90
2008,03,29,15,14,3.00
2008,03,29,15,15,3.10
2008,03,29,15,16,3.10
2008,03,29,15,17,3.20
2008,03,29,15,18,3.30
2008,03,29,15,19,3.30
2008,03,29,15,20,3.40
2008,03,29,15,21,3.40
2008,03,29,15,22,3.50
2008,03,29,15,23,3.60
2008,03,29,15,24,3.60
2008,03,29,15,25,3.60
2008,03,29,15,26,3.60
2008,03,29,15,27,3.60
2008,03,29,15,28,3.70
2008,03,29,15,29,3.70
2008,03,29,15,30,3.80
2008,03,29,15,31,3.80
2008,03,29,15,32,3.90
2008,03,29,15,33,4.00
2008,03,29,15,34,4.10
2008,03,29,15,35,4.20
2008,03,29,15,36,4.30
2008,03,29,15,37,4.40
2008,03,29,15,38,4.50
2008,03,29,15,39,4.60
2008,03,29,15,40,4.70
2008,03,29,15,41,4.80
2008,03,29,15,42,4.90
2008,03,29,15,43,5.00
2008,03,29,15,44,5.10
2008,03,29,15,45,5.20
2008,03,29,15,46,5.30
2008,03,29,15,47,5.40
2008,03,29,15,48,5.40
2008,03,29,15,49,5.50
2008,03,29,15,50,5.60
2008,03,29,15,51,5.60
2008,03,29,15,52,5.70
2008,03,29,15,53,5.70
2008,03,29,15,54,5.70
2008,03,29,15,55,5.70
2008,03,29,15,56,5.70
2008,03,29,15,57,5.70
2008,03,29,15,58,5.70
2008,03,29,15,59,5.70
2008,03,29,16,00,5.70
2008,03,29,16,01,5.60
2008,03,29,16,02,5.60
2008,03,29,16,03,5.40
2008,03,29,16,04,5.30
2008,03,29,16,05,5.30
2008,03,29,16,06,5.30
2008,03,29,16,07,5.20
2008,03,29,16,08,5.20
2008,03,29,16,09,5.20
2008,03,29,16,10,5.20
2008,03,29,16,11,5.10
2008,03,29,16,12,5.10
2008,03,29,16,13,5.10
2008,03,29,16,14,5.10
2008,03,29,16,15,5.10
2008,03,29,16,16,5.10
2008,03,29,16,17,5.00
2008,03,29,16,18,5.00
2008,03,29,16,19,5.00
2008,03,29,16,20,5.00
2008,03,29,16,21,5.00
2008,03,29,16,22,5.00
2008,03,29,16,23,5.00
2008,03,29,16,24,5.00
2008,03,29,16,25,5.00
2008,03,29,16,26,4.90
2008,03,29,16,27,4.90
2008,03,29,16,28,4.90
2008,03,29,16,29,4.90
2008,03,29,16,30,4.90
2008,03,29,16,31,4.90
2008,03,29,16,32,4.90
2008,03,29,16,33,4.90
2008,03,29,16,34,4.90
2008,03,29,16,35,4.90
2008,03,29,16,36,4.90
2008,03,29,16,37,4.90
2008,03,29,16,38,4.90
2008,03,29,16,39,4.90
2008,03,29,16,40,4.90
2008,03,29,16,41,4.90
2008,03,29,16,42,4.80
2008,03,29,16,43,4.80
2008,03,29,16,44,4.80
2008,03,29,16,45,4.80
2008,03,29,16,46,4.80
2008,03,29,16,47,4.80
2008,03,29,16,48,4.80
2008,03,29,16,49,4.70
2008,03,29,16,50,4.70
2008,03,29,16,51,4.70
2008,03,29,16,52,4.70
2008,03,29,16,53,4.70
2008,03,29,16,54,4.70
2008,03,29,16,55,4.70
2008,03,29,16,56,4.70
2008,03,29,16,57,4.70
2008,03,29,16,58,4.70
2008,03,29,16,59,4.60
2008,03,29,17,00,4.60
2008,03,29,17,01,4.60
2008,03,29,17,02,4.60
2008,03,29,17,03,4.50
2008,03,29,17,04,4.40
2008,03,29,17,05,4.40
2008,03,29,17,06,4.40
2008,03,29,17,07,4.30
2008,03,29,17,08,4.20
2008,03,29,17,09,4.20
2008,03,29,17,10,4.10
2008,03,29,17,11,4.10
2008,03,29,17,12,4.10
2008,03,29,17,13,4.10
2008,03,29,17,14,4.10
2008,03,29,17,15,4.00
2008,03,29,17,16,4.00
2008,03,29,17,17,3.90
2008,03,29,17,18,3.90
2008,03,29,17,19,3.90
2008,03,29,17,20,3.90
2008,03,29,17,21,3.90
2008,03,29,17,22,3.80
2008,03,29,17,23,3.80
2008,03,29,17,24,3.80
2008,03,29,17,25,3.80
2008,03,29,17,26,3.80
2008,03,29,17,27,3.80
2008,03,29,17,28,3.80
2008,03,29,17,29,3.80
2008,03,29,17,30,3.80
2008,03,29,17,31,3.80
2008,03,29,17,32,3.80
2008,03,29,17,33,3.70
2008,03,29,17,34,3.70
2008,03,29,17,35,3.70
2008,03,29,17,36,3.70
2008,03,29,17,37,3.70
2008,03,29,17,38,3.70
2008,03,29,17,39,3.70
2008,03,29,17,40,3.70
2008,03,29,17,41,3.70
2008,03,29,17,42,3.70
2008,03,29,17,43,3.70
2008,03,29,17,44,3.70
2008,03,29,17,45,3.60
2008,03,29,17,46,3.60
2008,03,29,17,47,3.50
2008,03,29,17,48,3.50
2008,03,29,17,49,3.40
2008,03,29,17,50,3.40
2008,03,29,17,51,3.40
2008,03,29,17,52,3.40
2008,03,29,17,53,3.40
2008,03,29,17,54,3.40
2008,03,29,17,55,3.40
2008,03,29,17,56,3.40
2008,03,29,17,57,3.30
2008,03,29,17,58,3.30
2008,03,29,17,59,3.40
2008,03,29,18,00,3.30
2008,03,29,18,01,3.30
2008,03,29,18,02,3.30
2008,03,29,18,03,3.30
2008,03,29,18,04,3.30
2008,03,29,18,05,3.30
2008,03,29,18,06,3.30